When you browse on this site, cookies collect data to enhance your experience and personalize the content and advertising you see.
Visit our Privacy Policy to learn more. By continuing to use the site, you agree to this use of cookies and data.
  • In France
  • List of Countries
  • For 7 days
  • Water Temperature
  • Weather Map
  • Weather Widgets
  • user-avatar
    Login

    Hourly Weather Frombork

    Today, 25 May, Monday

    Time Temperature Precipitation Wind Pressure Humidity
    00:00 +8°C° 0 mm 3 mps 763 mmHg 91%
    01:00 +8°C° 0 mm 3 mps 763 mmHg 93%
    02:00 +8°C° 0.1 mm 3 mps 763 mmHg 93%
    03:00 +8°C° 0.1 mm 3 mps 763 mmHg 94%
    04:00 +8°C° 0.1 mm 3 mps 764 mmHg 94%
    05:00 +9°C° 0.1 mm 3 mps 764 mmHg 94%
    06:00 +9°C° 0.1 mm 2 mps 764 mmHg 94%
    07:00 +10°C° 0 mm 2 mps 765 mmHg 94%
    08:00 +12°C° 0.3 mm 2 mps 765 mmHg 90%
    09:00 +13°C° 0.3 mm 2 mps 765 mmHg 86%
    10:00 +14°C° 0.3 mm 2 mps 765 mmHg 82%
    11:00 +14°C° 0.3 mm 3 mps 765 mmHg 80%
    12:00 +14°C° 0.3 mm 4 mps 765 mmHg 79%
    13:00 +14°C° 0.3 mm 5 mps 766 mmHg 77%
    14:00 +14°C° 0 mm 5 mps 766 mmHg 78%
    15:00 +14°C° 0 mm 5 mps 766 mmHg 79%
    16:00 +13°C° 0 mm 5 mps 766 mmHg 79%
    17:00 +13°C° 0 mm 5 mps 767 mmHg 83%
    18:00 +12°C° 0 mm 5 mps 767 mmHg 87%
    19:00 +11°C° 0 mm 4 mps 767 mmHg 91%
    20:00 +10°C° 0 mm 4 mps 768 mmHg 92%
    21:00 +8°C° 0 mm 4 mps 768 mmHg 93%
    22:00 +7°C° 0 mm 4 mps 769 mmHg 95%
    23:00 +7°C° 0 mm 4 mps 769 mmHg 95%

    Tomorrow, 26 May, Tuesday

    Time Temperature Precipitation Wind Pressure Humidity
    00:00 +7°C° 0 mm 4 mps 769 mmHg 96%
    01:00 +7°C° 0 mm 5 mps 769 mmHg 96%
    02:00 +7°C° 0 mm 4 mps 770 mmHg 96%
    03:00 +7°C° 0 mm 4 mps 770 mmHg 96%
    04:00 +7°C° 0 mm 4 mps 770 mmHg 96%
    05:00 +10°C° 0 mm 4 mps 770 mmHg 91%
    06:00 +11°C° 0 mm 4 mps 771 mmHg 87%
    07:00 +12°C° 0 mm 3 mps 771 mmHg 82%
    08:00 +13°C° 0 mm 4 mps 771 mmHg 80%
    09:00 +14°C° 0 mm 4 mps 772 mmHg 77%
    10:00 +15°C° 0 mm 4 mps 772 mmHg 74%
    11:00 +15°C° 0 mm 5 mps 772 mmHg 74%
    12:00 +15°C° 0 mm 5 mps 772 mmHg 73%
    13:00 +15°C° 0 mm 6 mps 772 mmHg 73%
    14:00 +15°C° 0 mm 5 mps 772 mmHg 73%
    15:00 +15°C° 0 mm 5 mps 772 mmHg 72%
    16:00 +15°C° 0 mm 5 mps 771 mmHg 72%
    17:00 +14°C° 0 mm 5 mps 772 mmHg 75%
    18:00 +13°C° 0 mm 5 mps 772 mmHg 79%
    19:00 +12°C° 0 mm 4 mps 772 mmHg 83%
    20:00 +11°C° 0 mm 4 mps 772 mmHg 84%
    21:00 +10°C° 0 mm 4 mps 772 mmHg 85%
    22:00 +9°C° 0 mm 3 mps 772 mmHg 85%
    23:00 +8°C° 0 mm 3 mps 772 mmHg 86%

    Day after tomorrow, 27 May, Wednesday

    Time Temperature Precipitation Wind Pressure Humidity
    00:00 +8°C° 0 mm 3 mps 772 mmHg 86%
    01:00 +8°C° 0 mm 3 mps 772 mmHg 87%
    02:00 +8°C° 0 mm 3 mps 771 mmHg 87%
    03:00 +8°C° 0 mm 3 mps 771 mmHg 87%
    04:00 +8°C° 0 mm 3 mps 771 mmHg 88%
    05:00 +10°C° 0 mm 3 mps 771 mmHg 83%
    06:00 +11°C° 0 mm 3 mps 771 mmHg 79%
    07:00 +13°C° 0 mm 3 mps 771 mmHg 75%
    08:00 +13°C° 0 mm 3 mps 771 mmHg 71%
    09:00 +14°C° 0 mm 3 mps 770 mmHg 68%
    10:00 +16°C° 0 mm 3 mps 770 mmHg 64%
    11:00 +16°C° 0 mm 3 mps 770 mmHg 63%
    12:00 +17°C° 0 mm 3 mps 769 mmHg 63%
    13:00 +17°C° 0 mm 3 mps 769 mmHg 62%
    14:00 +17°C° 0 mm 3 mps 769 mmHg 64%
    15:00 +17°C° 0 mm 2 mps 768 mmHg 67%
    16:00 +16°C° 0 mm 2 mps 768 mmHg 69%
    17:00 +15°C° 0 mm 2 mps 767 mmHg 74%
    18:00 +14°C° 0 mm 2 mps 767 mmHg 79%
    19:00 +13°C° 0 mm 2 mps 767 mmHg 84%
    20:00 +12°C° 0 mm 3 mps 766 mmHg 85%
    21:00 +11°C° 0 mm 3 mps 766 mmHg 86%
    22:00 +10°C° 0 mm 3 mps 766 mmHg 88%
    23:00 +10°C° 0 mm 4 mps 766 mmHg 88%

    28 May, Thursday

    Time Temperature Precipitation Wind Pressure Humidity
    00:00 +10°C° 0 mm 4 mps 765 mmHg 88%
    01:00 +8°C° 0 mm 4 mps 765 mmHg 88%
    02:00 +8°C° 0 mm 4 mps 765 mmHg 89%
    03:00 +7°C° 0 mm 4 mps 764 mmHg 91%
    04:00 +6°C° 0 mm 4 mps 764 mmHg 92%
    05:00 +8°C° 0 mm 5 mps 764 mmHg 90%
    06:00 +9°C° 0 mm 5 mps 764 mmHg 87%
    07:00 +12°C° 0 mm 5 mps 764 mmHg 85%
    08:00 +11°C° 0 mm 6 mps 764 mmHg 85%
    09:00 +11°C° 0 mm 6 mps 764 mmHg 86%
    10:00 +11°C° 0 mm 7 mps 764 mmHg 86%
    11:00 +10°C° 0 mm 7 mps 764 mmHg 85%
    12:00 +10°C° 0 mm 8 mps 764 mmHg 84%
    13:00 +10°C° 0 mm 8 mps 764 mmHg 83%
    14:00 +10°C° 0 mm 9 mps 765 mmHg 80%
    15:00 +10°C° 0 mm 9 mps 765 mmHg 76%
    16:00 +11°C° 0 mm 9 mps 765 mmHg 73%
    17:00 +10°C° 0 mm 8 mps 765 mmHg 74%
    18:00 +9°C° 0 mm 7 mps 765 mmHg 76%
    19:00 +8°C° 0 mm 6 mps 765 mmHg 77%
    20:00 +7°C° 0 mm 6 mps 765 mmHg 78%
    21:00 +7°C° 0 mm 6 mps 765 mmHg 79%
    22:00 +5°C° 0 mm 6 mps 765 mmHg 80%
    23:00 +5°C° 0 mm 6 mps 765 mmHg 81%

    29 May, Friday

    Time Temperature Precipitation Wind Pressure Humidity
    00:00 +5°C° 0 mm 6 mps 765 mmHg 81%
    01:00 +5°C° 0 mm 6 mps 765 mmHg 82%
    02:00 +5°C° 0 mm 6 mps 764 mmHg 82%
    03:00 +5°C° 0 mm 6 mps 764 mmHg 82%
    04:00 +5°C° 0 mm 6 mps 764 mmHg 83%
    05:00 +7°C° 0 mm 6 mps 764 mmHg 81%
    06:00 +8°C° 0 mm 7 mps 764 mmHg 79%
    07:00 +9°C° 0 mm 7 mps 763 mmHg 76%
    08:00 +10°C° 0 mm 7 mps 763 mmHg 75%
    09:00 +10°C° 0 mm 7 mps 763 mmHg 74%
    10:00 +10°C° 0 mm 7 mps 763 mmHg 72%
    11:00 +10°C° 1 mm 7 mps 762 mmHg 79%
    12:00 +9°C° 1 mm 6 mps 762 mmHg 86%
    13:00 +9°C° 1 mm 6 mps 762 mmHg 94%
    14:00 +9°C° 1.4 mm 5 mps 761 mmHg 94%
    15:00 +10°C° 1.4 mm 4 mps 761 mmHg 95%
    16:00 +10°C° 1.4 mm 4 mps 761 mmHg 96%
    17:00 +10°C° 0.5 mm 3 mps 761 mmHg 97%
    18:00 +10°C° 0.5 mm 3 mps 761 mmHg 97%
    19:00 +10°C° 0.5 mm 2 mps 761 mmHg 98%
    20:00 +10°C° 1.1 mm 3 mps 761 mmHg 98%
    21:00 +10°C° 1.1 mm 3 mps 761 mmHg 98%
    22:00 +10°C° 1.1 mm 3 mps 761 mmHg 98%
    23:00 +10°C° 1.7 mm 3 mps 761 mmHg 98%

    30 May, Saturday

    Time Temperature Precipitation Wind Pressure Humidity
    00:00 +10°C° 1.7 mm 3 mps 761 mmHg 98%
    01:00 +10°C° 1.7 mm 3 mps 761 mmHg 97%
    02:00 +10°C° 1 mm 3 mps 761 mmHg 97%
    03:00 +10°C° 1 mm 3 mps 761 mmHg 97%
    04:00 +10°C° 1 mm 2 mps 761 mmHg 98%
    05:00 +10°C° 1.4 mm 2 mps 761 mmHg 97%
    06:00 +12°C° 1.4 mm 2 mps 761 mmHg 97%
    07:00 +12°C° 1.4 mm 2 mps 761 mmHg 97%
    08:00 +12°C° 1 mm 2 mps 761 mmHg 97%
    09:00 +12°C° 1 mm 2 mps 761 mmHg 97%
    10:00 +13°C° 1 mm 2 mps 761 mmHg 97%
    11:00 +13°C° 0.6 mm 2 mps 761 mmHg 94%
    12:00 +14°C° 0.6 mm 1 mps 761 mmHg 91%
    13:00 +15°C° 0.6 mm 1 mps 761 mmHg 89%
    14:00 +15°C° 0.4 mm 2 mps 761 mmHg 88%
    15:00 +14°C° 0.4 mm 3 mps 761 mmHg 87%
    16:00 +14°C° 0.4 mm 3 mps 761 mmHg 86%
    17:00 +14°C° 0.4 mm 4 mps 761 mmHg 87%
    18:00 +13°C° 0.4 mm 4 mps 761 mmHg 89%
    19:00 +12°C° 0.4 mm 4 mps 761 mmHg 91%
    20:00 +11°C° 0 mm 4 mps 761 mmHg 92%
    21:00 +10°C° 0 mm 4 mps 761 mmHg 93%
    22:00 +9°C° 0 mm 3 mps 761 mmHg 94%
    23:00 +9°C° 0 mm 3 mps 761 mmHg 94%
    Show more